Retour au catalogue

COSMOS 2451

ActifNavigationPO
NORAD 35498·PAYLOAD·🇷🇺 Russia

Lancé Jul 6, 2009 depuis Plesetsk Cosmodrome

Loading…

Prochains Passages (prochaines 24 heures)

TLE

FraisSource: Space-Track

Époque: Sep 14, 2026, 21:52 UTC

1 35498U 09036A   26257.91150559 -.00000026  00000-0 -26335-3 0  9996
2 35498  82.4888  36.6656 0006987  23.5450 336.5947 12.40872040778771

Suivez COSMOS 2451 en temps réel avec AllMySat

Download on the App Store